Weather History for La Crosse, WI

Change the Weather History Date:

Wednesday, December 5, 2012

  Actual Average Record
Temperature  
Mean Temperature 28 °F 25 °F  
Max Temperature 38 °F 33 °F 67 °F (1998)
Min Temperature 18 °F 18 °F -5 °F (1880)
Degree Days  
Heating Degree Days 37 40  
Month to date heating degree days 130 194  
Since 1 July heating degree days 1619 1694  
Cooling Degree Days 0 0  
Month to date cooling degree days 0 0  
Year to date cooling degree days 1083 782  
Moisture  
Dew Point 14 °F    
Average Humidity 54    
Maximum Humidity 73    
Minimum Humidity 35    
Precipitation  
Precipitation 0.00 in 0.05 in 1.40 in (1879)
Month to date precipitation 0.12 0.27  
Year to date precipitation 24.82 31.97  
Snow  
Snow 0.00 in 0.40 in 3.80 in (1925)
Month to date snowfall 0.0 1.8  
Since 1 July snowfall 0.1 6.1  
Snow Depth 0.00 in    
Sea Level Pressure  
Sea Level Pressure 30.33 in    
Wind  
Wind Speed 9 mph (SE)    
Max Wind Speed 20 mph    
Max Gust Speed 25 mph    
Visibility 10 miles    
Events      
T = Trace of Precipitation, MM = Missing Value Source: NWS Daily Summary

Daily Weather History Graph

Daily Weather History Graph

Search for Another Location

Airport:

Trip Planner

Search our weather history database for the weather conditions in past years. The results will help you decide how hot, cold, wet, or windy it might be!

Date:

Astronomy

Dec. 05, 2012 Rise Set
Actual Time 7:24 AM CST 4:27 PM CST
Civil Twilight 6:51 AM CST 5:00 PM CST
Nautical Twilight 6:15 AM CST 5:36 PM CST
Astronomical Twilight 5:40 AM CST 6:11 PM CST
Moon 11:27 PM CST (12/5) 11:38 AM CST (12/5)
Length of Visible Light 10h 08m
Length of Day
9h 03m
Waning Gibbous, 59% of the Moon is Illuminated
Dec 5
Waning Gibbous
Dec 6
Last Quarter
Dec 13
New
Dec 19
First Quarter
Dec 28
Full

Hourly Weather History & Observations

Time (CST) Temp. Windchill Dew Point Humidity Pressure Visibility Wind Dir Wind Speed Gust Speed Precip Events Conditions
12:53 AM 21.0 °F 13.4 °F 12.0 °F 68% 30.44 in 10.0 mi NNW 5.8 mph - N/A   Clear
1:53 AM 21.9 °F 14.5 °F 12.0 °F 66% 30.45 in 10.0 mi North 5.8 mph - N/A   Clear
2:53 AM 19.9 °F - 10.9 °F 68% 30.46 in 10.0 mi Calm Calm - N/A   Clear
3:53 AM 21.0 °F 14.6 °F 10.9 °F 65% 30.46 in 10.0 mi NNE 4.6 mph - N/A   Clear
4:53 AM 21.0 °F - 10.9 °F 65% 30.47 in 10.0 mi Calm Calm - N/A   Clear
5:53 AM 19.0 °F 12.3 °F 10.0 °F 68% 30.47 in 10.0 mi SE 4.6 mph - N/A   Clear
6:53 AM 19.9 °F 14.9 °F 10.9 °F 68% 30.48 in 10.0 mi East 3.5 mph - N/A   Clear
8:53 AM 21.9 °F 15.7 °F 12.9 °F 68% 30.48 in 10.0 mi ESE 4.6 mph - N/A   Clear
9:53 AM 24.1 °F 13.1 °F 14.0 °F 65% 30.46 in 10.0 mi ESE 11.5 mph - N/A   Clear
10:53 AM 28.9 °F 23.9 °F 14.0 °F 54% 30.45 in 10.0 mi SE 4.6 mph - N/A   Clear
11:53 AM 33.1 °F 25.5 °F 14.0 °F 46% 30.39 in 10.0 mi ESE 9.2 mph - N/A   Clear
12:53 PM 36.0 °F 28.5 °F 14.0 °F 41% 30.35 in 10.0 mi SE 10.4 mph - N/A   Clear
1:53 PM 37.0 °F 31.0 °F 12.9 °F 37% 30.32 in 10.0 mi SSE 8.1 mph - N/A   Clear
2:53 PM 37.0 °F 28.9 °F 12.9 °F 37% 30.30 in 10.0 mi SE 12.7 mph - N/A   Clear
3:53 PM 35.1 °F 27.9 °F 14.0 °F 42% 30.28 in 10.0 mi SE 9.2 mph - N/A   Clear
4:53 PM 34.0 °F 25.0 °F 14.0 °F 44% 30.26 in 10.0 mi SE 12.7 mph - N/A   Clear
5:53 PM 34.0 °F 24.6 °F 16.0 °F 48% 30.24 in 10.0 mi SSE 13.8 mph - N/A   Clear
6:53 PM 34.0 °F 24.2 °F 16.0 °F 48% 30.21 in 10.0 mi SE 15.0 mph - N/A   Partly Cloudy
7:53 PM 35.1 °F 26.4 °F 17.1 °F 48% 30.18 in 10.0 mi SSE 12.7 mph - N/A   Clear
8:53 PM 35.1 °F 26.4 °F 18.0 °F 50% 30.17 in 10.0 mi SSE 12.7 mph - N/A   Mostly Cloudy
9:53 PM 36.0 °F 27.1 °F 19.0 °F 50% 30.14 in 10.0 mi SSE 13.8 mph - N/A   Mostly Cloudy
10:53 PM 37.0 °F 27.7 °F 19.9 °F 50% 30.10 in 10.0 mi SSE 16.1 mph - N/A   Overcast
11:53 PM 37.9 °F 29.2 °F 21.9 °F 53% 30.08 in 10.0 mi SSE 15.0 mph - N/A   Overcast